User: anonymous   Login
Location: Prairie State College
(41.5244°N, 87.6382°W)
Time: 10:54:06
(UTC-06:00)
Language:

Cosmos 1140 Rocket - Orbit

View from above orbital plane
View from above orbital plane
View from above satellite
View from above satellite

Ground track
Ground track

The orbit data is extracted from the following two-line orbital elements,

1 11574U 79089B   17056.19069983 -.00000010  00000-0  50103-5 0  9991
2 11574  74.0681  65.7684 0015937 354.1770   5.9197 14.40618175961019
Epoch (UTC): 25 February 2017 04:34:36
Eccentricity: 0.0015937
inclination: 74.0681°
perigee height: 745 km
apogee height: 768 km
right ascension of ascending node: 65.7684°
argument of perigee: 354.1770°
revolutions per day: 14.40618175
mean anomaly at epoch: 5.9197°
orbit number at epoch: 96101

The dashed part of the orbit path shows where the satellite is in the earth's shadow,  

DLR